[keps] orb08094.2l.amsat

Ray Hoad r.hoad at att.net
Thu Apr 3 17:13:00 PST 2008


SB KEPS @ AMSAT  $ORB08094.N
2Line Orbital Elements 08094.AMSAT

HR AMSAT ORBITAL ELEMENTS FOR AMATEUR SATELLITES IN NASA FORMAT
FROM WA5QGD FORT WORTH,TX April 3, 2008
Send Subscribe/unsubscribe to KEPS at 
http://www.amsat.org/mailman/listinfo/keps
BID: ORB08094.N

DECODE 2-LINE ELSETS WITH THE FOLLOWING KEY:
1 AAAAAU 00  0  0 BBBBB.BBBBBBBB  .CCCCCCCC  00000-0  00000-0 0  DDDZ
2 AAAAA EEE.EEEE FFF.FFFF GGGGGGG HHH.HHHH III.IIII JJ.JJJJJJJJKKKKKZ
KEY: A-CATALOGNUM B-EPOCHTIME C-DECAY D-ELSETNUM E-INCLINATION F-RAAN
G-ECCENTRICITY H-ARGPERIGEE I-MNANOM J-MNMOTION K-ORBITNUM Z-CHECKSUM

TO ALL RADIO AMATEURS BT

AO-07
1 07530U 74089B   08093.63709809 -.00000027  00000-0  10000-3 0  1429
2 07530 101.4752 127.6405 0012073 050.4817 309.7317 12.53573705527518
AO-10
1 14129U 83058B   08093.48616335  .00000014  00000-0  10000-3 0 04902
2 14129 025.9254 222.3870 6011501 112.0428 319.9334 02.05870866186540
UO-11
1 14781U 84021B   08093.91910843  .00000004  00000-0  78936-5 0 06361
2 14781 098.1627 126.7996 0008383 321.8118 038.2504 14.79629403292721
RS-15
1 23439U 94085A   08093.89184904 -.00000039  00000-0  10000-3 0 01337
2 23439 064.8142 256.8059 0149696 137.1166 224.1545 11.27552040546479
FO-29
1 24278U 96046B   08094.87412977 -.00000044  00000-0 -10567-4 0  7412
2 24278 098.5872 020.8816 0351313 047.9895 315.0596 13.52936941574342
SO-33
1 25509U 98061B   08093.91017508  .00000215  00000-0  32295-4 0 01676
2 25509 031.4297 021.9830 0354719 089.1146 275.0094 14.28208518492843
AO-40
1 26609U 00072B   08093.96854615 -.00000224  00000-0  10000-3 0   349
2 26609 007.5091 089.7898 7918353 067.5341 354.4005 01.25584547 34096
VO-52
1 28650U 05017B   08093.89400828  .00000474  00000-0  66825-4 0 08965
2 28650 097.7946 162.5512 0027738 028.6512 331.6229 14.81444059157456
PO-63
1 29712U 07001D   08094.72621231  .00001025  00000-0  14195-3 0  3247
2 29712 097.8812 154.2925 0013019 263.6470 096.3252 14.80088607 66458
AO-16
1 20439U 90005D   08093.94675842  .00000027  00000-0  25395-4 0 02896
2 20439 098.2245 077.8767 0011840 043.4416 316.7704 14.31788890950155
LO-19
1 20442U 90005G   08094.70527209  .00000014  00000-0  20219-4 0  2142
2 20442 098.1967 087.3509 0012726 039.9570 320.2572 14.32027827950413
AO-27
1 22825U 93061C   08093.94265919 -.00000023  00000-0  75239-5 0 09372
2 22825 098.3752 056.8156 0009067 119.3529 240.8593 14.29234759757026
IO-26
1 22826U 93061D   08093.86977973  .00000041  00000-0  32464-4 0 06406
2 22826 098.3696 057.6907 0009720 116.7695 243.4492 14.29483146757100
PO-28
1 22829U 93061G   08093.96316095  .00000039  00000-0  31044-4 0 09124
2 22829 098.3564 058.8971 0010736 091.0329 269.2088 14.30185014757370
GO-32
1 25397U 98043D   08093.74130482 -.00000182  00000-0 -62577-4 0 05663
2 25397 098.3732 132.6014 0002217 099.7914 260.3514 14.23139934505480
MO-46
1 26548U 00057D   08093.92335833  .00000053  00000-0  24425-4 0 00645
2 26548 064.5603 003.1621 0021449 334.9540 025.0471 14.83244498406659
NO-44
1 26931U 01043C   08093.58430307  .00000037  00000-0  46665-4 0  8449
2 26931 067.0510 119.4196 0005613 277.4353 082.6131 14.29517248339604
SO-50
1 27607U 02058C   08093.90151775 -.00000026  00000-0  18186-4 0 05704
2 27607 064.5590 282.2778 0082922 294.3717 064.8721 14.71341253283894
CO-55
1 27844U 03031E   08093.93191513  .00000039  00000-0  38661-4 0 02739
2 27844 098.7177 103.2385 0009661 338.6505 021.4252 14.20569132246753
CO-57
1 27848U 03031J   08093.91990698  .00000054  00000-0  45542-4 0 02252
2 27848 098.7181 102.3377 0009724 342.1604 017.9235 14.20380314246724
AO-51
1 28375U 04025K   08093.61978451  .00000013  00000-0  16513-4 0 00688
2 28375 098.0793 122.4166 0085133 022.4021 338.0853 14.40601851197520
CO-56
1 28941U 06005C   08094.75026066  .00018880  26250-5  15635-3 0  9648
2 28941 098.1019 195.5362 0177999 311.1400 047.4463 15.53041670118478
CP4
1 31122U 07012F   08094.55353829  .00000551  00000-0  13192-3 0  3040
2 31122 098.0460 162.8947 0085777 199.6716 160.1177 14.55106348 51228
CP3
1 31128U 07012M   08094.70123372 -.00000047  00000-0  00000 0 0  2973
2 31128 098.0449 161.2693 0102319 204.6534 154.9750 14.51930080 51120
LIBERT
1 31129U 07012N   08094.74886400  .00000338  00000-0  89029-4 0  8663
2 31129 098.0431 161.3463 0102230 204.5167 155.1145 14.52019512 51110
NOAA-10
1 16969U 86073A   08094.49896714  .00000174  00000-0  89296-4 0   681
2 16969 098.7286 116.5995 0013128 041.6186 318.6003 14.27356014120782
NOAA-11
1 19531U 88089A   08094.27788483 -.00000085  00000-0 -21218-4 0  1052
2 19531 098.7946 184.6516 0010749 282.9770 077.0183 14.14868919  7319
NOAA-12
1 21263U 91032A   08094.38043353  .00000190  00000-0  99212-4 0  6140
2 21263 098.7674 096.3401 0012137 347.4955 012.5929 14.25525272877736
MET-3/5
1 21655U 91056A   08093.90754787  .00000051  00000-0  10000-3 0 04240
2 21655 082.5583 157.5650 0012793 196.6765 163.3939 13.17014670799675
MET-2/21
1 22782U 93055A   08093.71306632 -.00000067  00000-0 -74090-4 0 01060
2 22782 082.5510 171.4443 0023726 138.8422 221.4541 13.83626973736694
OKEAN-4
1 23317U 94066A   08093.80512701  .00000383  00000-0  44386-4 0 05501
2 23317 082.5412 025.4015 0023131 019.7823 340.4284 14.82596246727117
NOAA-14
1 23455U 94089A   08094.17392554  .00000279  00000-0  17139-3 0   887
2 23455 098.9497 166.3586 0009182 002.7686 357.3548 14.13739280683753
SICH-1
1 23657U 95046A   08093.84370345  .00000189  00000-0  20999-4 0  3468
2 23657 082.5302 166.3422 0024415 012.3188 347.8633 14.81565310679064
NOAA-15
1 25338U 98030A   08094.42189994  .00000067  00000-0  47107-4 0  4135
2 25338 098.5522 088.1917 0009619 258.8827 101.1270 14.24693677514150
RESURS
1 25394U 98043A   08093.93394598 -.00000028  00000-0  58282-5 0 08942
2 25394 098.3938 141.2905 0002437 065.2338 294.9094 14.24155835505735
FENGYUN1
1 25730U 99025A   08094.92378419  .00000436  00000-0  28233-3 0  3781
2 25730 098.7218 073.2298 0022519 023.1549 337.0632 14.07725498458512
OKEAN-0
1 25860U 99039A   08093.87666917  .00000120  00000-0  25680-4 0 03319
2 25860 097.7479 087.7708 0001423 100.8339 259.3026 14.73512273468300
NOAA-16
1 26536U 00055A   08094.40378627 -.00000166  00000-0 -64850-4 0  8755
2 26536 099.1526 081.9554 0011403 076.7351 283.5104 14.12473517388216
NOAA-17
1 27453U 02032A   08094.28927726  .00000248  00000-0  12675-3 0  8719
2 27453 098.5403 161.0648 0011079 330.3036 029.7545 14.23962563300145
NOAA-18
1 28654U 05018A   08094.17919285  .00000496  00000-0  29931-3 0  3789
2 28654 098.8616 036.0522 0014530 162.5472 197.6216 14.11152239147893
HUBBLE
1 20580U 90037B   08093.37877690  .00000498  00000-0  25788-4 0 01190
2 20580 028.4681 097.6522 0003613 297.1541 062.8678 15.00359217783580
UARS
1 21701U 91063B   08093.58583153  .00006777  00000-0  10447-3 0  3303
2 21701 056.9729 131.1389 0089087 038.0202 322.7094 15.51107815910768
PO-34
1 25520U 98064B   08093.94406368  .00000789  00000-0  28995-4 0 09699
2 25520 028.4599 322.5211 0005812 184.3216 175.7327 15.17165834521720
ISS
1 25544U 98067A   08094.88701132  .00025028  00000-0  15469-3 0  2427
2 25544 051.6420 039.4115 0001148 004.9053 094.1597 15.76951265536802
OO-38
1 26063U 00004C   08093.82393509 -.00000011  00000-0  16537-4 0  1755
2 26063 100.1976 154.8047 0037199 062.2289 298.2658 14.35831220428755
UWE-1
1 28892U 05043C   08093.60867880  .00000185  00000-0  48513-4 0 00141
2 28892 098.1038 349.0241 0016424 287.6686 072.2713 14.59610784129574
CO-58
1 28895U 05043F   08093.37305025  .00000140  00000-0  39044-4 0 09875
2 28895 098.1067 349.1207 0016961 288.1253 071.8120 14.59651821129422
NCUBE2
1 28897U 05043H   08093.68910669  .00000203  00000-0  52113-4 0  5178
2 28897 098.1039 349.3651 0016431 288.5087 071.4359 14.59821438121750
FCAL
1 29667U 06055J   08094.69669429  .00113275  17711-4  12360-3 0  8767
2 29667 051.6283 348.9330 0005998 071.6444 288.4967 16.09501115 74547
FALCON
1 30776U 07006E   08094.57634261  .00000907  00000-0  69260-4 0  2829
2 30776 035.4338 245.9765 0000788 008.2032 351.8695 15.02941259 58915
MAST
1 31126U 07012K   08093.71937313 -.00000007  00000-0  91810-5 0 02958
2 31126 098.0437 161.1480 0094313 205.3165 154.3371 14.53410769051054
CAPE1
1 31130U 07012P   08094.76577504 -.00000017  00000-0  70697-5 0  2749
2 31130 098.0416 161.3340 0102458 204.4316 155.1987 14.51946443 50929
/EX






More information about the Keps mailing list